Location: Brachbach
(49.1847°N, 9.7240°E)
Time: 07:15:24
(UTC+00:00)

FO-29 - Pass Details

Date: 21 March 2026
Orbit: 801 x 1320 km, 98.5° (Epoch: 17 April)

Event Time Altitude Azimuth Distance (km) Brightness Sun altitude
Rises 22:31:08 0° 7° (N) 4,158 13.5 -38.8°
Reaches altitude 10° 22:35:00 10° 348° (NNW) 3,261 12.9 -39.0°
Maximum altitude 22:39:03 16° 315° (NW) 2,898 12.4 -39.2°
Drops below altitude 10° 22:43:11 10° 283° (WNW) 3,343 12.5 -39.3°
Sets 22:47:15 0° 263° (W) 4,321 12.9 -39.5°
